Theta_e
316 316 316 316 315 315 313 312 314 316 317 317 318 319 314 311 311 312 313 314 317 317 318 317 313 312 312 310 310 310 311 312 313 316 320 321 318 319 323 324 331 338 342 347 347 346 347 348 352 354 355 356 361 362 357 361 362 361 368 365 361 367 371 371 371 365 367 371 367 364 364 367 366 362 362 360 362 362 357 358 357 355 355 352 349 346 345 344
316 316 316 316 316 314 312 312 314 316 315 316 319 316 312 311 312 314 316 319 319 320 320 316 313 312 311 310 309 309 311 312 317 323 324 320 321 319 322 326 331 338 345 348 346 348 351 355 354 355 359 361 362 358 358 361 357 366 371 362 367 379 374 370 370 364 365 370 367 362 361 365 367 363 361 362 365 362 360 360 359 359 355 349 347 345 345 343
315 315 315 315 315 313 312 313 314 315 315 317 317 314 312 313 315 318 320 321 321 321 318 314 312 311 310 309 310 311 313 316 326 333 323 318 321 319 324 328 329 337 345 349 348 348 353 356 353 358 362 362 363 360 363 363 359 367 365 365 379 378 369 370 373 370 367 370 367 362 359 362 365 361 359 364 367 363 364 363 361 362 356 350 347 345 344 342
315 315 315 315 314 314 314 313 313 315 315 316 315 313 314 316 318 320 321 321 320 319 315 313 311 310 310 309 312 316 315 321 329 329 321 318 321 322 327 330 330 336 342 345 348 347 349 351 352 361 364 365 364 362 368 365 361 364 362 373 381 369 366 373 379 375 366 365 366 363 361 362 362 360 359 364 368 366 365 361 361 360 355 350 347 345 345 342
315 316 315 315 315 314 313 313 314 314 315 316 314 314 316 318 320 321 321 321 318 315 313 311 310 310 310 311 318 320 319 323 323 326 324 319 322 327 328 330 332 337 340 339 342 346 350 353 354 359 361 365 364 362 370 365 359 364 367 374 376 369 366 373 383 377 367 365 366 366 365 364 362 361 361 365 368 366 364 358 358 356 351 351 347 345 345 342
315 316 315 316 315 314 314 314 314 315 315 315 314 316 318 319 320 321 321 319 315 313 311 310 310 310 310 315 323 321 320 322 322 326 326 320 323 330 328 330 333 336 340 337 335 340 351 355 357 363 364 366 367 365 368 363 358 365 372 369 372 374 366 372 383 375 369 369 369 369 365 363 362 362 363 364 363 364 365 358 355 354 350 350 348 346 345 344
315 315 316 316 315 314 314 314 315 316 315 314 315 317 319 320 320 320 319 316 313 311 311 310 310 310 312 319 325 324 325 324 325 327 326 322 324 330 328 329 331 333 337 337 332 332 347 355 355 364 364 362 366 367 367 364 357 362 372 368 368 374 369 373 380 372 369 372 372 367 362 363 365 364 365 366 361 364 369 360 354 353 350 350 349 347 346 346
315 315 316 316 315 314 314 315 315 315 314 314 316 318 320 320 319 319 317 313 311 311 310 309 310 312 314 321 327 332 334 329 328 328 327 324 324 328 329 330 329 330 333 334 333 330 338 349 351 354 355 357 361 364 366 363 361 362 370 374 370 373 376 374 375 372 369 371 370 366 364 367 368 363 364 367 361 363 367 357 354 352 350 351 349 349 348 347
315 315 316 316 316 315 315 315 314 314 314 315 317 319 319 318 319 318 314 311 311 310 310 309 311 313 318 323 327 330 331 328 329 329 329 327 324 326 328 330 328 329 331 331 331 329 332 338 346 346 347 356 357 360 363 358 364 366 366 374 375 375 377 372 373 373 370 371 369 365 368 370 368 363 364 370 363 364 364 355 355 352 351 352 350 350 350 349
315 315 316 317 316 316 316 315 314 313 314 316 319 319 318 318 319 316 312 311 310 309 309 310 312 316 322 326 330 331 329 329 332 330 331 331 326 324 325 327 328 328 328 328 328 329 332 333 339 340 342 351 348 352 362 357 359 365 363 368 375 378 377 371 372 372 368 369 368 367 372 373 366 363 369 373 364 363 366 359 355 353 352 352 351 350 350 350
315 315 317 317 317 317 316 314 314 314 315 318 319 318 318 318 317 313 311 310 310 309 309 311 314 319 324 325 330 337 332 329 332 331 332 331 328 326 324 325 327 328 324 326 327 328 329 330 332 335 339 344 338 340 356 361 353 358 366 366 372 377 373 371 371 369 366 366 369 368 371 371 365 366 373 369 363 363 366 364 357 355 354 351 352 351 350 351
315 316 317 317 318 318 315 314 314 314 316 318 319 318 318 317 314 311 310 310 310 309 309 312 315 320 325 324 328 333 328 327 331 332 333 331 329 325 324 325 327 328 324 324 325 325 326 327 329 333 337 335 333 333 343 355 350 356 366 363 374 380 373 372 374 372 366 365 372 366 362 370 371 371 372 367 366 366 366 364 359 357 355 352 353 351 351 351
314 316 318 317 318 317 315 315 315 315 317 318 319 318 317 314 311 310 310 309 310 309 309 312 315 319 322 324 325 323 321 324 325 331 334 332 330 325 323 324 325 325 322 321 323 325 327 328 330 335 334 330 332 331 331 339 345 359 366 364 373 376 375 372 369 373 367 365 375 361 353 373 383 371 367 370 369 367 368 364 359 359 357 354 354 352 352 351
315 317 318 318 318 316 315 316 315 315 318 319 318 317 316 312 310 310 309 309 310 309 311 313 316 321 324 325 320 319 321 323 324 330 333 333 331 326 323 321 322 323 321 321 322 325 328 328 330 331 329 329 330 328 329 339 355 364 356 363 367 353 365 376 364 371 368 364 374 359 351 372 388 374 363 368 369 369 369 363 359 360 358 357 356 354 353 352
315 318 318 319 318 316 316 316 314 316 318 319 318 316 314 310 309 310 308 310 310 311 317 318 319 324 333 333 324 323 326 325 326 328 331 334 331 327 325 322 321 321 320 320 321 324 326 326 328 330 328 329 329 328 334 346 369 370 338 347 364 349 363 382 366 369 372 367 369 356 356 371 378 370 362 363 367 369 366 363 361 361 361 359 357 356 354 353
317 318 319 319 317 318 318 315 315 317 318 318 316 314 313 310 311 310 309 311 310 314 323 326 322 324 335 336 328 327 328 326 325 325 328 332 331 329 327 326 326 323 322 323 323 324 325 326 329 330 328 328 330 331 334 338 358 369 340 337 359 354 354 368 363 365 371 372 369 358 362 373 366 362 363 361 362 365 365 363 362 361 362 360 358 358 356 355
318 319 319 318 318 319 316 314 316 318 318 316 315 313 311 311 311 310 312 315 315 316 321 325 324 325 331 330 327 329 329 326 324 324 326 328 329 330 327 327 327 324 325 326 326 327 328 329 329 328 329 328 334 334 327 326 334 349 348 343 356 357 347 353 359 361 368 375 374 366 366 372 364 362 367 362 358 363 365 364 363 362 362 361 360 359 358 357
319 319 318 318 319 318 314 315 317 318 316 314 314 311 312 316 315 314 318 320 319 318 320 324 325 325 326 326 326 328 329 326 324 324 323 325 327 330 329 327 325 324 327 328 327 327 327 330 328 330 333 327 332 334 324 325 327 327 337 341 347 351 344 350 354 357 367 373 372 372 370 372 367 363 367 363 360 363 364 362 362 361 360 360 360 359 359 358
319 319 318 319 319 316 314 316 318 317 313 313 314 313 318 322 320 319 321 321 322 324 329 333 330 324 324 326 325 327 326 323 322 321 321 324 326 328 327 323 324 325 325 328 328 325 325 328 328 325 328 326 328 332 326 332 332 324 334 343 345 344 340 351 359 359 368 370 371 374 372 374 369 363 368 367 363 363 362 362 363 363 362 361 360 359 359 358
319 318 319 319 317 315 315 317 317 314 312 313 313 318 327 330 329 330 326 325 327 326 329 337 335 328 327 328 326 327 325 321 319 320 320 322 323 324 323 321 324 324 324 328 326 324 324 325 327 323 325 328 325 328 328 330 330 327 333 339 341 338 333 343 351 357 366 366 367 370 369 372 368 364 368 367 364 364 363 363 365 365 362 361 360 359 359 358
319 319 320 318 316 315 317 317 314 311 312 312 313 325 336 333 333 335 331 333 330 323 326 332 329 327 327 326 326 327 326 324 321 321 320 321 323 322 323 323 323 324 325 326 324 327 325 321 325 325 324 325 322 326 329 326 326 326 327 326 327 330 331 333 342 356 363 361 364 368 367 368 364 361 366 369 368 366 363 363 364 364 362 361 360 358 358 357
319 319 319 318 316 316 317 315 313 311 312 311 313 326 333 328 327 326 326 334 331 324 326 328 325 326 327 325 327 328 327 327 325 323 322 321 323 323 325 325 324 327 327 323 327 330 326 323 326 325 323 323 323 325 327 327 326 324 324 321 320 328 330 328 344 364 362 356 364 370 372 370 364 361 365 370 372 369 363 360 361 361 362 362 360 358 358 357
319 319 318 318 316 316 317 313 311 312 313 314 313 320 326 325 326 324 323 331 333 330 331 331 330 332 332 328 327 329 330 330 326 325 324 321 323 324 325 326 325 327 326 323 326 324 320 326 329 325 322 323 324 324 325 324 323 325 324 319 321 328 324 316 334 364 364 351 355 365 372 372 360 358 362 363 365 366 362 360 360 361 362 361 359 358 357 357
319 319 319 317 315 317 316 312 312 315 318 319 316 321 325 325 326 325 326 334 336 334 333 331 332 335 337 330 326 330 331 328 326 325 324 323 324 323 323 327 326 325 326 326 326 322 321 326 325 323 323 323 323 325 326 323 323 329 326 322 324 324 325 323 332 362 370 357 359 359 353 355 353 353 356 356 358 361 360 362 364 362 361 359 358 358 357 357
318 319 318 315 316 317 313 312 316 319 321 321 322 325 324 325 326 323 330 337 334 336 333 327 330 334 332 328 325 329 328 325 327 325 323 324 324 323 324 325 324 327 328 325 324 325 326 325 322 323 324 322 323 326 329 324 321 325 326 327 328 323 342 356 353 360 355 341 351 349 332 340 355 354 351 350 355 361 361 364 366 364 363 361 360 359 358 357
317 318 316 315 317 315 314 318 318 319 324 325 326 325 323 328 326 322 338 342 331 335 334 325 329 331 328 326 324 326 326 327 327 322 322 323 323 324 325 324 324 326 328 326 326 327 327 325 323 324 325 323 324 325 327 327 321 320 324 328 331 337 361 373 356 345 337 326 334 342 333 337 349 350 350 350 356 365 365 365 365 364 365 364 360 357 358 358
316 316 314 316 317 314 321 328 320 321 329 326 325 324 324 330 324 323 337 334 325 330 329 323 326 327 327 325 324 326 326 327 326 322 324 325 323 323 324 327 325 322 327 327 324 326 328 328 325 325 326 324 325 325 327 332 324 319 325 327 333 343 358 371 357 339 337 328 329 345 344 336 338 344 351 352 360 370 366 359 358 357 360 362 360 359 360 360
315 315 314 316 317 315 320 322 318 323 328 326 325 324 327 329 326 331 332 321 322 328 326 325 325 324 326 323 324 329 327 326 326 323 324 324 324 324 323 327 327 324 329 324 319 326 328 327 327 328 329 325 327 332 329 330 326 327 331 327 330 334 339 357 354 339 335 322 320 335 336 330 337 348 351 355 368 375 363 354 353 354 357 360 360 359 360 360
314 315 315 316 317 317 316 317 320 325 325 325 325 325 329 327 331 342 334 322 325 325 325 326 325 324 326 324 325 329 327 326 326 324 324 324 323 324 323 326 326 325 325 323 323 328 325 327 330 327 327 327 331 334 329 327 328 328 327 325 330 335 338 345 341 335 334 322 317 326 326 325 338 350 353 357 366 367 360 355 355 356 356 356 357 355 354 356
315 315 316 317 316 316 317 319 323 326 325 325 325 327 329 333 341 339 328 327 326 323 326 325 325 326 327 327 326 328 327 327 328 326 324 325 324 324 323 324 327 328 330 329 327 328 327 332 333 329 328 329 329 328 326 327 329 326 329 331 330 337 348 353 349 339 328 321 323 329 332 328 329 343 354 355 357 357 357 359 358 356 355 355 355 353 351 351
316 316 316 317 317 317 320 324 326 326 325 324 325 329 331 341 350 333 324 329 325 323 328 325 326 327 327 329 328 327 327 327 329 326 325 326 326 326 323 324 330 334 339 336 327 330 333 330 329 331 334 331 327 330 328 327 329 331 339 335 323 329 338 340 344 337 321 321 329 335 341 334 329 341 354 353 354 356 356 358 357 355 355 355 354 352 350 349
317 317 316 317 317 317 321 327 328 325 324 323 327 340 341 334 332 327 328 330 323 324 331 328 327 328 327 328 328 328 327 328 329 328 329 326 325 328 325 329 333 325 326 329 325 328 332 329 328 329 334 332 331 338 332 331 337 333 339 334 322 326 326 324 332 329 319 322 328 333 339 336 339 351 356 352 353 357 357 357 356 355 353 352 352 350 348 347
318 318 317 316 317 317 319 323 324 323 323 324 331 352 350 328 321 328 333 328 323 326 331 330 329 330 329 326 329 330 327 328 329 327 328 327 327 329 325 331 333 321 321 324 321 322 325 331 335 328 330 331 332 336 327 329 337 329 330 327 323 327 323 324 334 325 318 327 331 335 337 334 342 353 355 354 353 354 358 358 357 356 354 352 349 347 346 346
320 319 318 318 318 317 319 320 321 323 322 326 337 346 338 326 328 334 336 334 331 329 328 328 329 328 327 328 331 330 326 326 329 327 329 328 325 327 329 330 327 326 331 325 321 322 318 323 332 327 325 329 331 334 328 331 334 329 332 326 321 326 320 320 330 323 320 330 333 335 334 335 344 350 352 356 353 353 357 357 358 357 354 352 348 347 346 346
320 318 319 321 319 319 321 320 322 322 322 335 350 342 330 331 336 335 338 341 334 329 327 327 330 327 325 330 330 327 325 325 327 329 328 328 326 328 333 332 329 333 333 323 321 325 317 319 332 329 324 327 328 329 331 332 327 325 330 323 318 327 327 324 328 327 325 328 331 335 338 344 352 351 353 357 354 355 355 353 354 353 353 351 347 348 347 345
321 320 321 321 322 322 320 321 324 320 326 347 348 335 336 341 337 334 340 339 328 328 327 323 328 325 321 327 330 327 325 323 328 332 328 329 331 332 333 332 330 333 334 329 326 325 318 320 332 332 326 327 326 327 330 327 325 326 323 320 320 327 337 330 323 327 328 323 327 337 344 353 353 347 352 355 354 356 353 351 351 350 353 352 348 348 348 346
322 322 322 322 324 323 321 324 323 321 335 351 340 337 348 345 335 339 346 339 328 329 329 322 322 321 317 321 327 330 326 321 326 330 326 326 329 330 334 332 326 327 334 333 326 324 321 322 331 331 326 328 326 327 330 326 329 329 321 324 325 323 335 332 321 327 329 323 329 338 347 352 345 345 353 352 355 359 354 353 353 351 354 353 349 349 348 347
322 322 324 325 325 323 323 323 321 329 343 345 343 351 351 339 333 336 340 335 327 328 331 324 320 322 321 319 322 329 326 319 323 329 326 326 327 328 333 334 327 327 330 328 326 327 322 320 329 331 327 332 332 328 329 330 332 329 323 328 324 318 325 325 320 325 323 323 333 337 344 350 345 351 357 349 356 364 358 357 357 355 357 355 351 349 347 347
323 327 330 328 326 324 323 320 325 342 345 337 346 351 338 336 341 339 338 334 326 326 327 324 321 324 325 322 322 326 324 320 324 328 324 326 327 326 330 331 326 328 329 327 329 331 327 321 323 330 328 326 330 332 328 329 332 331 329 330 329 327 326 320 319 321 319 325 334 333 338 348 349 356 361 355 362 365 358 358 359 357 357 355 350 349 348 348
326 335 334 327 325 324 322 324 336 349 342 335 348 347 333 335 339 339 339 330 324 325 323 324 327 325 324 326 323 323 327 328 329 329 327 329 327 325 329 330 327 330 331 330 331 332 333 323 317 331 334 321 323 331 329 328 329 329 328 326 329 331 324 318 319 320 320 327 335 334 337 348 351 351 357 362 362 357 353 356 357 356 356 354 351 350 351 349
330 340 335 326 324 324 325 332 341 344 340 339 344 342 337 337 336 339 339 328 324 325 322 326 331 328 327 326 322 324 331 334 334 333 331 331 329 326 327 330 328 328 329 335 337 330 332 326 319 328 330 321 328 335 331 330 327 328 329 324 324 325 323 322 320 321 324 327 332 332 331 341 348 344 349 358 356 353 354 355 356 357 355 353 353 352 350 349
337 339 332 325 324 324 329 340 341 337 342 345 340 335 337 341 342 341 335 327 325 324 325 329 328 329 330 326 323 328 334 333 333 334 331 331 333 330 327 328 328 330 332 333 331 330 340 340 325 324 328 327 330 330 324 324 326 330 330 328 328 326 328 328 323 323 326 324 330 331 326 337 348 345 349 354 353 356 357 356 356 357 356 354 353 353 349 346
343 335 327 325 326 326 332 342 344 342 346 348 340 335 335 338 341 339 332 330 328 324 327 328 325 326 327 325 325 328 329 327 327 333 334 332 332 330 330 330 329 334 336 330 329 333 342 338 324 328 343 341 330 328 328 327 329 331 328 332 333 327 329 335 334 333 330 327 333 330 326 341 351 349 353 352 353 358 356 355 357 355 356 354 352 352 349 345
341 334 331 328 325 327 334 341 343 345 349 345 337 334 333 333 336 335 332 332 329 326 327 328 325 324 324 325 327 326 325 323 322 329 333 333 331 331 335 333 329 331 331 329 332 327 325 330 326 322 331 332 326 329 333 330 329 329 329 335 338 333 332 333 334 332 325 327 334 327 328 345 352 352 356 353 353 356 353 353 356 355 354 351 348 349 347 345
335 335 336 331 326 329 337 340 336 339 344 339 337 338 334 332 334 334 333 333 329 327 328 326 324 325 327 328 328 330 329 324 322 327 331 333 334 333 334 335 332 332 337 342 345 332 326 336 333 318 317 324 324 325 326 325 327 331 337 343 346 343 335 327 328 326 322 327 333 329 332 345 350 353 356 354 351 353 351 351 353 354 351 348 346 345 345 343
337 342 342 340 336 333 336 337 332 335 340 338 340 341 333 332 334 330 329 328 326 327 327 325 325 326 329 330 330 332 332 329 328 333 334 334 335 331 332 339 339 342 354 357 353 346 337 337 343 342 336 334 336 336 331 327 329 335 342 347 350 348 344 341 336 330 332 337 339 342 343 341 346 354 356 355 351 349 350 349 349 349 347 345 344 342 342 342
338 343 342 340 341 339 340 340 334 335 338 336 340 340 335 336 334 327 327 326 325 328 327 325 327 326 326 330 330 330 335 338 338 337 335 333 335 333 330 334 340 351 362 354 345 351 342 328 337 350 342 337 341 338 330 329 334 338 343 347 350 352 354 352 340 332 336 337 337 349 350 340 347 357 353 351 350 347 349 348 346 346 344 342 341 340 341 341
334 337 334 331 339 347 344 340 338 339 339 338 341 342 336 336 335 330 329 327 326 328 328 328 330 329 328 331 330 330 336 339 335 335 335 333 334 336 333 329 330 340 347 338 339 356 348 327 327 331 331 338 339 330 331 342 344 344 347 347 349 354 355 349 344 341 340 335 336 346 349 345 353 358 351 348 347 344 346 347 344 343 342 340 341 342 343 342
336 340 337 330 337 346 342 340 341 342 343 343 345 345 335 333 336 333 328 328 330 331 331 332 332 330 333 340 342 339 335 331 328 333 338 334 331 333 334 331 327 330 335 332 337 347 341 332 334 331 328 338 341 335 340 348 347 345 348 347 347 354 356 352 352 352 344 340 346 350 350 353 356 352 347 347 345 344 345 344 343 342 341 341 343 344 344 342
334 339 337 334 342 347 346 346 343 342 346 344 341 340 334 331 333 331 327 328 331 331 331 334 335 332 335 347 352 343 337 338 335 334 336 332 330 334 336 333 328 328 332 332 334 336 328 332 347 345 330 332 341 346 347 349 352 351 348 350 352 350 349 349 352 352 345 344 350 350 349 354 356 349 346 345 345 345 344 343 343 342 340 343 346 346 343 342
325 328 328 334 350 354 348 347 343 342 347 344 339 339 335 330 330 329 327 327 329 332 334 335 335 334 334 341 343 333 335 345 339 333 337 335 331 334 334 331 328 328 332 331 331 335 332 333 345 346 333 327 334 346 350 348 347 344 343 351 354 345 341 344 346 347 345 345 346 344 345 354 357 349 346 346 345 345 345 345 344 342 340 343 346 347 344 341
321 326 326 331 347 353 347 346 345 343 342 339 339 340 334 329 328 328 328 328 326 330 333 332 334 337 335 336 335 331 336 345 338 331 335 335 333 333 331 331 330 330 335 333 329 336 343 340 340 338 331 329 333 342 347 340 333 335 344 353 354 348 345 345 347 349 347 346 347 345 347 355 355 348 346 347 346 344 344 344 342 341 340 342 345 346 343 340
Wind_Speed
14 14 14 14 14 13 12 12 12 14 14 13 12 11 11 12 13 13 14 15 15 16 15 13 10 11 12 13 15 15 17 16 13 9 7 10 9 6 2 9 17 17 16 16 17 15 9 6 5 5 6 3 1 1 1 1 2 2 2 1 1 2 2 3 5 4 3 2 3 4 4 4 3 3 2 2 2 2 4 3 2 3 4 6 12 22 28 28
15 14 14 14 14 14 13 13 13 14 14 13 12 11 11 12 13 13 14 15 14 15 14 11 9 10 11 12 14 16 17 16 12 10 11 11 5 7 6 10 17 18 18 18 19 17 9 6 6 7 4 1 0 1 0 1 1 2 2 1 2 4 3 4 5 4 3 3 5 4 5 4 2 4 3 3 3 3 5 3 3 4 5 10 16 24 27 28
15 15 14 14 14 14 14 14 14 15 14 13 11 11 11 12 13 13 14 14 14 14 12 9 8 9 10 12 14 15 14 10 6 7 9 10 8 8 10 13 16 18 19 16 18 17 10 10 12 7 3 1 1 1 1 1 1 1 2 0 4 5 3 3 4 5 4 2 5 3 4 4 3 3 3 3 4 4 6 5 4 5 5 9 14 21 25 26
15 15 15 14 14 14 14 15 15 15 14 11 11 11 12 13 13 13 13 13 13 12 9 7 7 8 9 12 13 12 9 4 2 4 3 8 12 13 13 14 15 18 16 11 14 13 6 10 12 5 3 1 2 2 1 2 2 1 3 3 4 3 1 4 4 4 2 1 4 4 3 3 3 2 3 4 5 4 6 8 8 9 10 12 13 17 23 23
15 15 15 14 14 14 15 15 15 14 12 10 11 12 13 13 13 13 12 12 12 9 7 6 7 8 9 11 10 8 4 3 2 3 1 8 15 17 16 15 15 19 15 7 10 10 4 8 7 2 2 1 2 1 2 3 3 1 3 5 4 3 1 4 4 3 2 3 4 5 4 3 2 2 4 6 7 5 5 8 9 10 12 15 16 17 19 20
15 15 15 14 14 15 15 15 14 13 11 10 11 12 13 13 12 12 12 11 10 7 5 5 6 7 9 9 7 5 2 2 3 2 1 9 15 18 17 16 15 18 16 8 7 8 5 5 4 2 1 1 1 2 3 3 4 1 4 3 3 3 2 2 3 2 4 5 4 5 3 3 3 2 3 6 9 3 0 5 9 10 14 17 18 17 17 17
15 15 15 15 15 15 15 14 13 11 10 10 11 13 13 12 11 11 11 10 7 5 4 5 6 7 9 6 4 5 2 3 5 1 3 8 15 17 16 16 14 16 18 10 5 5 4 5 3 3 2 2 2 4 3 2 4 2 4 4 2 4 4 2 4 4 4 5 4 4 2 3 5 3 1 6 10 3 3 3 10 11 15 17 16 16 16 17
16 15 15 15 15 15 15 13 12 11 11 11 12 12 12 11 11 10 10 8 5 3 3 4 6 7 8 4 2 4 1 4 3 4 3 7 14 18 17 15 13 15 17 13 8 5 3 4 4 3 1 4 3 3 2 3 1 4 5 4 0 2 3 1 4 5 4 3 1 4 3 4 6 2 1 7 10 4 1 2 9 11 13 14 15 16 15 15
16 15 15 15 15 15 14 12 11 11 11 11 12 11 11 10 10 10 8 5 2 2 2 3 5 6 6 3 2 2 2 3 3 5 4 6 12 18 18 14 14 15 14 12 11 6 4 4 4 5 3 3 3 3 3 2 2 6 6 3 3 1 2 1 4 5 3 2 3 4 3 4 3 1 4 8 8 4 3 5 9 12 13 13 13 15 15 14
16 16 16 16 16 15 13 12 12 12 11 11 11 10 10 10 9 9 6 3 1 0 1 3 5 6 4 2 4 2 2 1 3 7 6 6 9 15 18 15 15 17 12 9 10 9 7 6 4 4 2 2 3 3 4 4 3 6 5 3 3 2 1 2 3 4 3 2 4 5 5 4 0 1 4 7 3 5 7 6 9 11 13 13 12 13 14 14
16 16 16 16 16 15 12 11 12 12 11 10 10 10 10 10 8 6 3 1 1 1 1 2 4 4 2 3 5 3 2 1 2 6 7 7 8 12 16 17 16 18 14 7 11 16 13 7 3 2 1 1 2 2 3 5 3 3 4 3 2 3 1 2 2 3 2 1 5 5 3 2 2 2 7 6 1 6 8 8 9 10 11 12 12 12 12 13
16 16 16 16 16 14 11 12 12 11 10 9 10 10 10 9 6 4 1 1 1 1 1 2 4 3 2 3 3 6 1 1 3 5 7 7 7 8 12 16 15 17 16 9 10 17 15 7 3 2 2 1 2 3 3 3 1 1 4 2 4 6 2 3 2 3 4 2 4 4 3 3 3 7 8 2 4 6 8 8 8 9 9 10 11 10 9 11
17 16 16 16 15 13 12 12 12 11 9 9 10 10 8 7 4 1 1 1 1 1 0 1 3 2 2 0 5 7 3 3 4 6 9 8 6 5 7 12 14 15 15 12 10 7 7 6 4 4 3 1 3 4 1 2 2 1 3 2 2 6 5 5 0 3 5 2 4 5 2 5 7 10 6 1 6 8 8 8 8 7 7 8 8 8 8 11
17 16 16 16 14 12 12 12 11 9 8 9 9 8 6 4 2 1 1 1 1 0 0 1 3 2 2 4 5 3 6 7 6 9 10 10 8 4 3 7 11 14 14 16 13 3 1 3 5 4 3 3 4 4 3 5 2 0 1 2 2 1 4 6 1 5 5 1 3 5 1 6 7 9 7 2 6 9 8 8 8 7 6 6 7 8 8 10
16 16 16 14 13 12 12 11 10 8 8 9 8 7 5 3 1 1 2 2 2 1 1 2 1 2 2 5 5 2 6 6 8 13 11 10 9 3 2 5 8 10 11 14 14 9 6 5 3 2 3 2 2 3 4 5 3 2 1 3 3 1 4 7 3 7 5 1 2 4 1 6 7 8 6 3 7 8 8 7 7 7 6 6 6 7 7 8
16 16 15 13 12 12 12 10 8 7 8 8 7 5 4 1 1 2 2 2 2 2 2 3 2 2 2 2 2 2 5 5 7 12 12 12 11 4 2 2 4 5 8 11 11 10 8 4 2 1 1 2 3 3 3 4 4 3 1 2 3 1 3 5 3 4 3 3 1 2 2 3 4 5 5 2 6 7 7 6 7 7 6 7 6 6 7 6
16 15 14 12 12 12 10 9 7 7 8 7 5 4 1 1 2 2 3 3 2 2 2 2 2 2 1 3 2 2 3 5 7 9 12 13 11 8 3 2 1 1 2 5 5 5 3 1 1 1 2 2 2 3 4 4 4 4 2 1 3 2 2 3 4 3 3 4 3 3 3 5 5 4 5 3 5 6 7 6 7 7 6 6 5 6 6 7
16 14 12 12 12 10 8 7 7 7 8 6 4 2 1 2 3 3 3 4 4 2 1 0 1 2 2 3 2 2 4 5 6 8 11 12 11 11 6 2 3 5 6 5 2 1 2 1 1 1 3 3 2 5 2 3 2 3 2 2 3 2 3 4 4 3 6 4 4 5 5 11 11 6 3 1 4 6 6 6 6 6 6 6 6 7 7 8
15 13 12 12 11 9 8 7 7 7 6 4 2 1 3 3 4 3 3 4 2 1 0 1 1 1 2 3 4 6 7 4 4 7 9 9 9 9 4 1 3 4 3 3 4 3 1 2 3 1 3 3 3 5 6 7 4 2 2 3 3 4 5 5 5 5 8 5 4 7 7 10 10 6 4 3 4 5 5 5 4 5 5 5 6 6 7 9
14 12 12 11 9 8 7 6 6 7 5 3 1 2 3 2 3 1 0 2 4 4 1 3 4 1 3 4 5 8 6 1 2 4 8 9 8 6 1 2 4 4 1 2 4 2 2 1 3 5 7 8 6 7 7 6 3 1 1 3 4 4 6 4 4 6 6 5 4 7 7 9 8 5 3 3 2 4 5 5 5 5 5 6 7 7 9 9
13 12 11 10 8 6 5 5 5 5 5 2 1 2 2 1 2 2 3 3 6 7 6 5 5 4 7 6 5 5 3 2 2 0 6 9 8 6 1 2 4 1 3 4 2 3 3 1 7 8 9 10 6 7 7 5 3 3 3 4 4 3 6 4 3 5 2 2 3 3 6 9 8 4 3 1 3 5 7 7 7 7 6 5 7 9 9 7
12 11 10 8 7 5 4 4 4 5 4 2 1 2 3 1 1 2 1 3 7 6 7 6 3 6 9 8 7 2 4 2 4 3 5 7 5 4 1 3 5 4 3 0 2 5 4 4 11 8 5 6 4 6 6 4 4 3 2 0 3 4 3 3 4 4 1 1 4 2 4 7 7 5 4 3 5 5 7 9 8 8 7 6 7 8 7 6
11 10 8 7 5 4 3 2 3 3 2 1 1 4 2 6 6 3 2 0 6 3 3 4 3 5 5 5 7 6 4 2 3 4 6 8 3 4 4 3 4 3 1 1 2 1 2 7 10 4 2 1 2 2 4 1 2 3 3 3 3 5 1 2 4 3 3 1 1 0 2 4 6 5 4 3 5 4 4 7 6 6 7 8 8 6 6 8
11 9 7 5 4 3 1 1 2 2 2 1 2 2 8 12 5 3 3 0 4 4 3 5 4 4 3 2 7 9 3 3 4 4 9 10 4 3 4 4 4 1 3 4 6 3 6 11 6 4 5 3 3 5 2 1 3 4 4 5 4 4 2 1 1 2 4 2 1 3 4 5 5 6 6 5 4 3 1 5 5 5 5 5 6 6 7 8
10 7 5 3 2 1 1 1 1 3 3 1 1 6 14 12 2 6 3 2 2 5 3 4 2 4 5 3 8 8 2 2 5 5 9 11 7 3 2 2 3 2 4 4 4 3 8 10 3 5 7 1 2 6 3 4 3 4 4 8 7 4 6 5 3 4 5 4 2 2 4 4 5 5 7 7 5 5 2 2 3 4 3 4 5 5 6 6
8 6 2 1 1 1 1 1 1 4 2 1 4 12 15 8 3 8 4 4 2 5 1 2 1 3 5 4 5 3 4 2 6 6 8 10 9 5 1 1 1 3 4 4 2 2 5 5 3 0 3 3 3 5 5 6 3 3 3 7 6 6 8 6 5 3 2 1 3 2 4 2 5 6 8 9 7 6 4 4 4 4 3 4 4 3 3 4
8 4 1 0 1 3 2 2 1 3 1 1 8 13 12 4 7 7 3 4 1 2 1 1 1 4 5 3 5 5 2 4 2 4 6 9 7 4 1 2 1 2 2 3 2 2 4 4 4 3 3 4 2 3 5 6 6 2 4 5 7 6 6 7 6 4 3 3 3 4 4 2 3 4 7 8 6 6 7 7 7 6 4 3 2 2 3 4
6 3 1 1 2 3 3 1 2 1 1 6 10 11 10 2 7 5 3 2 1 0 2 2 1 3 2 1 5 5 2 2 2 1 2 7 6 4 1 5 4 4 2 4 2 5 3 2 2 2 5 2 3 5 6 7 3 5 5 6 5 5 4 5 6 4 0 1 2 6 3 3 4 5 7 7 5 7 8 8 8 6 5 3 2 1 2 3
5 3 1 1 2 4 4 3 3 1 4 10 11 11 7 2 5 3 3 1 1 1 1 1 1 2 2 2 2 0 1 1 2 3 2 4 3 3 2 5 5 4 3 3 5 7 3 4 6 5 4 4 5 4 5 5 1 4 4 6 4 4 4 4 5 4 3 3 2 5 2 2 4 5 6 6 5 5 7 6 6 5 5 5 4 4 4 3
4 2 1 2 2 3 3 4 4 2 8 10 10 9 2 4 4 4 1 1 1 1 0 1 1 1 4 4 2 2 1 2 1 1 2 1 2 4 2 3 4 3 2 2 3 7 5 3 3 3 2 4 3 1 3 3 4 1 5 5 4 5 4 4 3 4 4 2 5 5 1 4 2 4 4 3 2 4 4 4 5 5 5 4 4 5 4 4
5 3 3 3 3 4 2 2 3 4 10 10 10 6 2 2 4 4 2 2 1 1 1 1 1 2 6 5 2 1 1 2 2 2 1 0 3 5 2 1 3 3 3 5 3 5 7 5 1 2 2 1 4 2 0 2 2 3 4 4 3 4 4 4 5 4 4 2 5 3 1 5 2 3 3 3 4 3 2 2 4 5 5 5 4 4 4 4
6 5 5 5 5 6 5 3 1 6 10 9 8 4 4 2 1 2 2 3 1 2 2 3 2 2 4 3 1 2 2 1 1 3 3 1 2 1 2 3 2 3 3 3 3 5 5 3 3 5 3 2 5 3 4 6 5 5 4 4 4 3 4 2 3 3 1 3 3 2 1 2 1 4 4 3 4 3 3 3 3 4 5 5 4 4 5 5
6 5 5 6 7 8 8 4 2 6 9 7 5 4 5 3 2 3 1 1 1 2 2 2 2 4 5 3 2 3 2 2 2 1 2 2 2 1 2 3 4 2 1 3 1 3 3 5 6 5 4 3 5 4 1 3 4 4 1 2 3 2 3 1 3 2 2 3 2 3 2 1 2 3 4 4 4 4 4 3 3 3 5 4 4 4 5 6
6 6 6 7 8 8 7 4 3 5 8 6 4 4 4 1 3 3 1 2 2 1 0 1 3 4 5 3 4 3 2 2 2 3 2 2 2 1 2 2 1 3 2 2 0 1 0 4 4 2 2 3 3 3 4 3 0 1 3 4 2 4 3 2 3 2 3 3 3 4 2 2 2 2 4 4 3 4 3 2 3 3 5 5 3 4 6 6
6 6 7 9 8 6 6 5 2 3 6 4 5 4 2 3 3 1 2 4 1 1 2 1 5 4 1 2 3 2 3 2 2 4 3 2 4 3 1 2 2 2 4 3 2 1 1 4 5 3 3 2 3 1 4 5 1 2 2 3 0 4 4 1 3 4 3 1 2 2 1 3 3 3 5 2 2 4 3 4 3 4 5 3 4 6 6 6
6 6 6 7 7 5 7 7 5 2 2 5 5 2 3 4 2 2 2 2 0 1 1 3 5 3 1 3 3 2 1 1 2 3 2 1 3 2 1 3 2 2 4 4 2 1 2 3 5 4 2 1 2 2 1 3 1 1 1 1 3 3 6 4 2 0 3 1 2 1 1 4 2 3 4 1 2 3 2 3 4 3 4 5 6 6 6 7
8 6 3 4 3 4 8 8 7 4 3 6 4 3 4 3 3 4 2 2 1 3 5 2 2 2 1 1 3 3 1 1 2 3 2 0 1 1 1 2 1 2 4 4 2 2 3 2 6 1 2 4 2 1 3 2 2 3 1 4 2 2 4 4 1 2 4 1 3 1 1 3 1 1 3 2 3 3 1 3 3 4 6 7 6 6 6 6
7 3 2 4 1 6 10 9 9 5 5 4 1 3 2 2 3 3 2 4 2 3 5 3 1 1 2 2 2 3 0 2 1 3 3 1 0 1 0 1 0 1 2 3 3 0 3 1 7 2 2 5 5 3 3 6 1 3 3 3 2 2 0 1 1 1 1 1 3 3 2 2 3 3 3 4 6 4 3 4 4 6 6 6 7 7 6 7
3 0 3 5 3 10 12 11 7 4 5 2 2 3 1 2 5 4 3 3 1 3 3 2 1 2 2 3 2 1 1 2 2 3 2 2 1 0 0 1 1 2 3 3 4 0 2 1 5 4 2 4 6 4 0 5 5 3 2 2 2 3 3 1 1 2 3 2 2 3 3 3 5 4 4 6 6 4 2 3 4 5 5 5 5 5 6 7
1 2 3 4 6 14 13 8 4 5 3 2 3 2 2 3 6 6 4 3 2 2 1 2 2 3 2 2 2 1 2 2 3 3 1 2 2 1 2 1 1 1 4 4 4 1 2 2 3 5 4 3 2 0 3 3 2 3 3 3 3 2 1 1 1 1 3 3 2 1 1 5 5 3 4 6 4 3 2 2 3 3 4 4 5 5 6 6
1 4 3 1 11 14 8 4 2 2 1 2 2 3 3 3 4 6 4 3 3 1 3 4 4 3 3 1 1 1 2 3 3 2 1 1 3 1 2 3 3 1 3 5 4 1 1 2 2 3 4 2 5 4 2 4 3 3 2 1 1 1 1 3 0 2 1 3 3 4 2 6 5 2 3 4 3 3 3 3 3 4 4 5 5 5 5 5
3 3 2 4 13 7 4 3 1 1 2 2 2 3 3 3 4 5 4 2 0 1 2 3 3 3 3 2 1 2 3 3 3 2 2 1 4 3 2 1 3 3 3 2 1 1 2 3 1 3 3 4 9 6 0 2 4 3 2 2 2 1 3 5 2 3 1 1 1 3 1 5 5 2 3 1 3 4 3 3 3 4 5 5 6 6 5 6
3 2 2 7 9 4 6 1 3 2 2 3 3 3 3 2 3 3 3 3 0 1 2 2 1 2 1 1 1 2 3 3 3 2 2 0 2 3 3 1 3 4 4 2 2 1 2 3 2 3 4 5 6 4 3 1 3 3 2 2 2 1 1 5 4 3 2 2 1 1 1 5 4 3 3 2 1 2 2 2 1 3 5 5 6 7 7 7
1 2 1 7 6 5 4 3 2 2 3 4 4 5 3 3 4 3 2 3 1 2 2 1 0 2 1 2 3 2 2 3 2 2 1 1 1 1 2 2 1 1 1 2 3 1 0 1 2 2 4 5 5 6 6 5 4 2 2 3 2 2 2 2 1 2 1 2 4 3 3 5 4 3 4 5 5 5 5 4 3 3 5 5 6 7 7 7
0 0 2 3 5 3 1 4 2 2 4 4 4 6 4 3 4 5 4 2 1 2 2 0 1 3 3 4 4 4 3 3 2 1 1 1 2 2 4 4 1 2 1 2 3 3 2 2 3 3 2 2 2 2 3 3 3 1 2 5 4 4 3 0 0 3 0 3 3 4 4 5 5 4 5 6 5 5 5 5 4 4 4 6 6 6 7 7
2 2 2 3 2 2 1 2 2 2 3 2 4 4 2 3 4 3 4 2 1 1 2 1 1 4 5 5 5 5 6 4 3 2 2 0 2 2 3 4 2 1 1 4 5 4 4 2 2 5 6 5 6 5 4 1 1 2 4 6 5 4 2 2 3 2 3 2 0 4 4 2 6 4 4 5 4 4 5 5 5 5 5 6 6 7 8 7
3 2 1 2 1 2 3 2 1 1 2 1 2 3 2 3 4 2 1 1 1 2 3 3 2 3 2 3 5 3 4 5 5 3 1 1 2 3 4 2 2 2 2 3 3 3 4 2 2 5 4 5 6 5 3 1 3 1 2 4 5 6 4 5 3 2 3 3 3 6 3 1 5 4 3 5 4 4 5 5 5 6 6 7 6 7 8 7
3 1 1 1 1 1 2 2 1 2 4 3 2 2 3 3 2 1 1 2 2 2 3 3 5 3 4 6 5 2 2 4 4 2 0 1 1 2 3 3 3 3 2 2 2 4 5 1 2 3 1 2 2 4 3 3 3 1 1 0 3 5 4 4 2 3 3 3 4 4 3 4 6 4 3 5 4 4 5 5 5 5 6 6 6 7 8 8
3 1 2 2 1 3 3 4 3 4 4 3 2 2 2 2 4 3 1 2 3 4 4 3 3 3 3 6 6 4 3 2 1 2 2 1 1 1 1 1 2 2 3 3 3 2 4 1 2 2 2 4 4 1 3 5 4 2 2 2 2 0 3 4 3 4 3 3 4 3 4 6 6 4 4 5 3 4 4 4 5 5 6 7 6 7 8 8
3 1 3 3 3 3 3 4 2 1 3 1 1 3 2 2 4 3 0 2 2 2 4 5 3 1 3 4 6 5 6 7 5 4 4 3 0 1 2 2 2 2 4 2 1 2 3 0 0 3 2 4 5 4 3 4 4 3 2 4 2 1 3 2 2 3 2 1 2 1 1 5 5 3 4 5 3 3 4 5 6 6 6 7 7 8 8 9
4 4 2 2 3 3 2 4 2 2 2 3 1 4 3 2 4 1 1 1 5 4 4 8 7 2 4 5 7 5 6 8 8 6 8 6 3 3 2 2 5 1 2 1 1 2 3 1 1 4 2 4 3 3 3 4 5 3 4 5 2 1 1 1 0 2 2 1 1 3 3 4 4 2 4 5 4 5 6 6 7 6 7 7 7 8 9 9
8 4 2 1 2 3 3 4 3 2 1 2 2 3 4 5 5 1 3 2 3 3 4 9 9 4 5 5 5 6 8 8 8 7 8 6 4 5 3 3 7 5 2 3 1 1 3 4 1 3 2 3 4 1 3 4 5 3 5 4 4 1 1 2 3 3 4 3 2 2 4 5 4 3 4 5 6 6 6 5 5 6 7 7 7 8 9 9
Wind_Direction
321 320 317 315 315 316 313 307 306 304 302 303 302 301 301 303 304 306 306 307 310 313 316 322 323 315 314 316 315 316 320 317 314 314 264 250 237 206 161 156 160 160 162 156 149 145 149 180 190 157 145 161 195 358 313 19 76 59 79 77 316 195 208 193 178 194 182 190 199 178 162 159 161 162 161 130 83 100 167 199 118 69 45 108 126 134 142 147
322 319 317 317 316 316 315 311 307 304 304 305 304 303 305 306 306 308 308 311 314 316 321 326 325 316 316 318 317 321 324 321 317 301 251 233 215 192 179 157 163 167 164 160 161 153 150 192 181 142 117 117 235 32 346 302 83 108 110 75 250 207 223 212 173 184 200 189 177 175 167 171 186 164 160 159 161 140 163 206 127 87 70 107 123 134 142 148
322 319 318 317 316 316 313 309 306 304 305 306 306 308 309 308 309 310 311 314 317 321 326 330 326 316 320 319 320 326 327 330 319 281 244 216 195 182 173 166 171 175 174 175 175 168 169 184 169 141 82 14 248 93 80 299 201 160 112 331 252 213 236 249 185 197 227 184 152 169 159 175 234 165 154 169 161 171 184 192 155 146 142 131 134 140 146 152
321 320 318 317 315 313 310 308 306 303 305 307 310 312 310 310 312 312 314 318 321 328 332 333 324 316 324 322 325 330 328 350 279 262 241 204 188 173 174 175 176 180 182 182 182 181 173 159 156 132 75 349 308 69 134 226 194 163 145 204 243 186 233 256 210 203 246 56 138 137 128 187 244 176 179 159 148 213 218 202 184 170 158 146 147 150 152 156
321 319 318 317 314 311 310 308 305 304 305 309 313 311 311 313 315 315 318 323 328 335 337 334 321 320 329 328 335 335 346 70 219 283 38 186 178 171 175 176 177 183 177 152 173 182 138 131 133 76 61 297 318 35 238 212 152 181 220 216 222 150 190 253 216 188 121 73 100 126 153 190 175 179 206 174 175 220 223 206 185 160 158 156 156 156 157 160
321 319 318 316 314 312 310 308 306 306 309 313 313 311 313 316 318 320 323 328 332 337 342 332 318 328 334 333 349 352 46 109 267 300 125 177 176 174 174 175 178 183 181 152 144 157 130 118 106 91 108 323 227 224 248 203 142 213 265 248 235 182 190 231 176 177 132 117 144 168 185 155 146 245 223 194 210 225 6 184 167 157 161 158 156 157 162 166
320 318 317 315 314 311 309 308 306 308 312 313 312 311 315 319 321 323 325 329 332 338 348 329 322 335 341 338 340 5 75 257 271 147 144 176 181 180 173 177 178 182 191 186 148 146 130 123 135 145 140 310 236 228 242 166 148 190 268 281 263 191 205 220 147 157 147 151 189 164 132 154 183 240 199 219 235 248 343 169 155 155 155 154 158 164 170 171
320 319 317 315 312 311 309 308 307 310 312 312 311 314 320 323 322 322 326 329 329 345 344 320 327 343 350 353 343 8 19 263 232 154 174 179 186 187 178 176 181 186 191 199 193 167 141 143 179 166 166 274 223 223 207 121 154 203 236 264 182 179 230 229 132 150 163 171 143 108 148 205 193 220 292 242 246 233 309 134 143 147 151 158 166 169 172 172
321 318 316 314 312 311 310 309 310 309 310 311 314 320 325 322 320 320 322 325 335 357 333 319 331 352 359 6 61 55 261 255 186 192 211 192 194 193 189 184 186 189 187 206 204 170 178 191 200 193 210 247 200 231 192 138 261 214 217 222 133 318 300 108 143 163 167 170 120 133 217 262 220 270 290 252 241 198 138 127 144 147 156 167 170 172 173 174
320 318 315 313 311 310 310 311 310 308 310 314 319 326 326 318 315 315 315 321 4 334 326 326 342 8 8 23 77 117 220 206 199 221 229 221 205 192 194 197 193 190 186 205 198 176 192 197 187 185 188 222 201 222 171 162 224 202 203 178 123 329 323 119 178 180 151 178 164 173 225 275 305 148 258 262 233 158 141 141 155 155 165 172 173 177 174 176
320 317 314 312 311 309 310 313 310 309 312 318 326 326 320 312 310 312 313 305 155 159 311 332 7 24 24 68 98 177 200 109 228 242 248 242 215 199 200 203 199 194 190 189 200 206 212 201 145 110 143 236 226 237 200 196 214 190 156 112 34 343 339 138 180 188 147 188 180 168 236 279 73 179 240 257 131 147 149 152 166 165 172 175 175 179 177 181
320 315 313 311 310 310 314 313 310 311 315 325 329 321 312 306 306 307 298 156 166 167 282 335 23 35 34 59 169 211 169 55 260 252 258 252 223 216 213 211 211 205 198 194 215 219 221 217 130 103 242 253 318 297 247 213 175 95 110 113 327 360 346 234 196 176 155 176 172 136 325 291 196 222 239 216 127 146 147 156 173 175 177 178 178 179 180 182
319 314 312 310 311 314 317 312 311 313 320 330 323 312 305 300 306 299 210 146 162 175 302 354 4 16 54 355 234 229 237 268 265 247 250 254 242 235 228 220 221 222 217 221 234 223 220 227 183 199 232 219 281 276 344 37 92 76 81 112 336 10 328 274 303 130 148 167 154 121 336 282 239 241 248 118 133 140 147 168 177 178 179 178 179 181 184 184
317 313 310 311 314 317 316 313 312 315 326 327 313 304 299 297 299 212 143 124 130 85 340 359 353 29 98 250 264 250 240 253 256 239 236 244 249 254 234 212 216 226 230 239 250 253 310 251 204 223 236 198 255 284 358 5 24 52 13 50 31 5 287 295 327 142 149 185 136 114 229 270 274 272 269 232 152 144 159 176 176 179 178 178 180 182 189 190
315 311 310 312 316 316 314 313 313 320 326 315 305 299 290 279 230 145 112 114 103 82 61 39 25 76 54 284 283 258 241 249 241 231 228 239 241 221 146 178 209 227 234 248 256 262 279 267 209 230 264 247 6 357 337 343 2 34 345 323 347 211 270 306 279 168 156 50 105 118 201 272 285 291 292 222 160 152 166 174 175 181 177 179 184 185 193 197
313 310 310 312 315 315 314 314 315 321 317 307 304 295 274 238 150 131 122 115 104 121 106 70 57 86 90 281 296 266 243 233 233 228 224 236 236 219 94 132 190 209 231 251 259 260 263 248 208 163 269 320 52 63 5 358 342 1 64 267 280 221 288 311 295 215 170 106 118 184 226 279 275 298 338 94 159 156 160 173 176 182 185 183 184 189 193 196
313 310 311 314 315 315 316 316 318 319 310 306 304 280 247 147 150 130 120 106 109 150 131 94 41 38 244 266 306 283 252 229 234 228 220 229 234 235 278 3 93 117 271 276 261 251 250 237 304 337 45 14 80 87 20 346 320 337 17 284 251 200 236 284 302 273 173 143 189 206 239 258 252 288 358 62 155 155 161 181 180 180 189 187 186 192 194 198
313 312 314 315 315 318 319 317 318 316 309 312 307 255 136 127 131 107 115 117 106 112 89 346 29 39 268 284 294 263 297 275 240 216 211 218 225 230 247 311 27 28 8 348 337 341 328 341 42 357 357 360 58 95 94 243 257 305 306 313 298 284 228 239 277 228 163 170 188 170 235 257 260 278 313 290 160 161 172 175 178 184 188 190 192 196 198 205
315 315 316 315 318 319 316 316 315 311 315 330 333 144 131 121 108 97 111 116 117 122 52 227 172 94 229 256 291 297 310 306 225 198 191 198 206 214 231 328 38 34 28 350 332 357 43 8 31 335 297 282 219 154 188 211 197 259 225 192 243 286 270 230 249 226 169 162 195 187 218 253 266 284 287 263 174 170 176 156 170 188 187 194 197 203 204 210
319 318 317 317 319 317 313 314 310 311 329 357 24 110 117 70 46 359 306 164 208 214 191 188 186 258 280 259 308 320 322 359 178 182 172 174 165 158 178 18 48 40 75 196 284 317 89 12 286 234 239 254 228 187 211 218 189 269 218 222 235 257 281 271 275 264 175 152 223 212 228 259 269 288 295 275 164 180 190 174 189 194 194 199 199 209 211 216
319 318 318 319 319 315 311 311 311 319 342 10 20 103 128 80 58 328 300 265 241 225 232 233 199 252 272 264 297 335 17 32 315 320 161 168 139 131 210 34 85 6 270 211 250 337 49 326 260 241 234 250 235 186 213 227 210 240 232 269 285 234 260 289 305 290 185 163 289 235 239 264 275 300 302 200 155 201 207 200 205 200 200 204 205 214 215 218
319 318 319 321 317 310 307 312 319 329 354 30 67 109 125 87 25 297 305 308 281 233 221 249 252 266 266 261 259 232 69 37 303 302 167 154 129 164 226 72 131 209 263 246 353 355 12 261 258 253 209 220 224 175 190 218 209 221 200 182 287 254 262 311 319 324 91 170 304 273 221 270 302 301 268 198 189 210 205 206 208 195 196 205 212 216 215 214
321 321 322 319 314 307 306 314 320 343 25 45 98 109 55 345 327 281 159 317 293 270 194 215 221 243 268 266 217 163 101 147 224 262 185 148 137 179 154 113 158 205 273 154 180 3 331 256 248 245 130 53 308 180 159 225 261 227 180 134 248 259 258 310 312 2 61 105 304 120 200 296 329 331 308 265 244 241 202 205 204 191 199 208 214 214 212 212
326 325 322 314 314 304 306 336 336 19 19 280 149 65 352 345 342 176 154 125 289 288 226 197 195 205 231 250 169 149 121 181 188 234 181 153 136 147 159 166 140 230 264 167 158 181 260 264 264 301 328 360 317 307 346 280 297 274 203 168 222 241 144 148 247 54 26 4 109 72 30 326 337 3 344 319 298 314 209 181 191 212 213 205 214 216 213 215
332 328 322 318 321 289 313 20 40 21 340 246 137 350 349 350 3 160 146 34 293 291 261 194 228 218 198 135 159 164 120 195 215 210 177 163 152 129 194 186 118 248 247 142 133 215 262 273 298 302 300 74 197 288 288 189 230 302 232 192 197 175 126 120 118 79 34 348 285 67 51 306 311 9 350 335 343 337 338 140 200 251 246 214 223 227 226 227
339 333 337 345 4 113 74 112 50 1 336 143 9 348 349 356 144 158 128 38 293 282 289 165 265 199 184 140 164 150 74 275 243 180 166 176 167 130 137 236 68 244 214 149 154 237 268 295 51 201 274 118 153 269 241 166 124 336 252 189 159 115 116 137 148 111 87 266 306 61 121 255 311 2 347 334 341 342 359 20 344 312 281 246 246 256 251 248
347 346 16 9 143 136 133 143 20 3 97 7 352 348 347 10 137 146 86 39 303 265 131 222 334 157 183 170 144 119 111 271 272 134 165 181 173 91 103 236 312 235 189 107 1 282 242 303 31 77 70 97 138 260 223 143 103 289 241 143 123 119 140 165 162 144 176 193 356 17 109 127 305 316 327 333 354 7 12 2 345 334 306 281 268 245 227 226
355 360 30 187 190 205 216 228 293 245 68 355 349 349 348 51 142 129 75 88 232 334 134 223 257 149 171 135 147 141 203 232 110 285 235 168 167 66 105 226 189 209 213 109 275 272 217 246 257 133 84 110 208 231 200 138 107 250 211 136 132 149 160 160 152 153 183 110 342 331 55 100 270 289 329 349 21 11 359 349 343 345 344 358 20 333 255 231
355 357 335 218 226 227 231 254 243 196 4 356 352 346 347 137 135 80 78 134 250 327 120 120 133 168 63 65 189 167 352 44 127 277 344 133 174 72 154 210 166 200 264 129 216 261 243 220 211 158 134 203 235 247 190 148 280 255 145 106 79 75 74 94 129 138 44 60 240 284 39 120 268 305 336 360 24 352 334 332 331 341 0 27 35 21 12 356
330 320 283 232 215 209 237 252 217 44 4 355 350 344 15 126 82 65 102 222 188 261 317 103 184 169 98 100 291 324 335 300 10 17 35 103 336 29 138 175 107 151 291 16 242 260 287 272 193 145 176 200 186 177 175 189 272 322 88 75 49 41 47 54 70 96 67 18 253 264 100 132 262 304 309 329 337 303 302 327 332 338 357 17 25 22 16 9
314 286 248 232 211 202 223 210 167 27 3 353 346 353 96 79 56 99 176 245 190 286 322 156 203 120 122 139 241 267 167 300 339 87 117 158 17 26 45 12 44 52 2 353 307 290 333 357 308 268 286 96 99 101 278 302 328 60 68 57 38 353 17 31 358 44 78 294 261 261 111 124 167 266 270 290 290 284 282 299 319 325 334 349 4 9 4 1
305 284 252 242 230 212 202 173 120 5 357 349 349 25 94 35 33 151 261 307 301 242 206 187 191 151 143 132 212 205 156 276 279 118 136 132 56 90 172 201 190 26 345 299 322 333 340 339 303 301 307 35 72 54 340 351 26 49 38 50 63 360 1 7 331 14 92 254 250 272 10 103 203 240 239 271 281 279 264 254 278 295 305 329 358 5 359 5
288 281 262 246 237 221 218 232 307 343 346 346 1 55 81 78 207 215 265 325 239 214 188 158 135 129 131 126 250 222 154 230 241 108 110 91 60 257 252 213 175 126 254 226 333 354 323 312 333 354 338 10 81 96 321 326 6 22 28 87 93 74 48 326 293 320 274 264 274 301 340 47 282 264 222 227 247 248 246 250 267 284 290 308 350 14 8 9
278 273 273 259 247 229 224 244 281 332 343 360 63 74 76 125 227 219 217 255 245 231 323 125 110 98 118 164 235 197 162 252 186 106 58 74 102 238 294 303 193 134 132 157 174 122 147 297 317 18 327 347 63 139 168 161 6 319 165 141 139 150 138 231 239 216 244 263 299 319 356 161 210 253 219 217 254 264 265 282 282 288 284 288 339 21 17 9
293 278 280 270 257 229 209 213 225 327 350 34 73 76 143 216 247 208 221 257 272 344 324 44 99 101 103 287 275 201 184 248 135 92 52 100 156 180 217 276 273 118 123 149 211 146 105 251 263 288 282 1 13 283 145 115 54 280 148 104 141 179 145 143 188 174 178 203 296 319 306 200 198 258 254 243 320 294 295 317 303 287 290 321 14 17 13 2
325 307 292 271 258 211 184 183 180 190 29 69 79 106 200 224 227 171 203 261 279 122 5 28 73 105 259 311 317 317 87 142 117 83 46 128 167 170 197 237 232 145 140 146 195 169 69 268 286 324 299 313 345 275 134 106 181 277 101 178 242 177 120 111 183 48 75 128 269 301 274 297 335 285 264 284 327 276 255 290 285 293 333 13 25 13 3 350
329 324 315 301 289 178 165 165 162 157 80 82 111 203 227 235 206 187 220 309 287 114 101 85 71 123 198 294 310 311 14 128 116 98 104 229 189 186 268 254 224 189 183 154 170 185 136 276 295 335 216 262 301 322 335 355 130 100 155 217 213 88 85 104 145 11 43 202 272 335 259 286 328 273 276 268 260 258 266 297 311 353 7 15 11 360 350 335
316 305 336 349 359 158 155 154 152 130 77 82 161 247 233 233 243 230 297 326 309 82 85 119 168 138 163 162 278 291 230 174 134 98 130 157 117 150 174 234 139 340 246 138 105 129 115 305 294 286 214 293 344 48 330 319 13 121 171 187 119 111 96 35 142 149 92 221 288 322 303 252 203 226 251 220 226 250 308 339 3 11 10 9 354 341 333 335
309 351 360 4 97 147 145 146 142 81 66 106 227 260 247 261 271 260 277 313 330 85 75 151 139 77 127 151 217 285 68 153 143 95 131 147 113 136 70 219 182 355 349 109 122 271 81 84 284 282 275 320 358 52 241 306 333 14 62 33 35 139 161 174 158 161 162 180 256 313 328 275 227 220 209 207 219 236 285 4 20 8 2 354 329 321 332 344
308 70 12 8 117 143 142 136 103 53 80 179 202 236 278 281 278 272 250 245 218 108 128 187 121 92 141 171 182 169 53 101 124 103 120 127 102 279 270 214 183 336 6 64 100 73 50 91 255 287 334 9 357 139 168 186 307 354 30 16 348 2 109 153 71 76 130 150 179 185 304 269 248 228 218 219 215 201 188 67 29 359 347 323 304 320 340 337
50 68 6 38 135 142 128 93 51 62 125 247 222 229 284 284 282 296 285 232 214 172 155 154 132 130 155 130 114 141 68 67 81 101 130 152 125 147 256 204 178 219 23 43 54 56 107 133 206 290 348 355 249 246 147 150 186 175 109 78 215 240 114 123 334 322 82 125 159 159 213 269 259 262 265 234 177 162 167 105 36 342 318 303 302 319 326 308
84 70 340 160 147 134 61 67 304 126 152 257 231 226 277 283 274 293 311 308 234 89 83 107 119 129 134 123 75 70 93 68 26 92 139 192 160 172 273 165 129 110 99 84 313 249 151 106 67 274 267 261 262 266 183 182 186 154 97 78 124 122 100 120 190 263 71 76 123 134 185 268 268 307 318 246 156 147 141 100 37 320 297 302 310 314 307 289
98 32 328 163 154 41 36 110 317 339 209 260 267 248 250 258 274 287 313 317 331 82 42 61 117 118 108 147 117 84 97 79 34 92 133 48 175 216 279 26 107 84 81 125 248 278 93 83 32 294 298 310 308 328 358 28 90 74 355 16 66 348 106 142 174 185 147 161 146 107 258 266 281 329 14 30 67 66 51 44 2 302 303 315 314 309 301 294
143 301 354 172 191 357 41 168 305 304 265 301 303 280 260 231 245 235 255 286 236 123 101 110 127 111 86 72 91 89 106 103 48 22 88 94 186 243 8 30 131 128 94 188 191 177 82 101 78 26 355 350 350 356 352 353 30 47 303 322 344 357 57 113 144 82 82 205 157 139 241 255 276 334 18 23 24 18 355 340 327 309 314 317 312 306 299 299
341 255 1 208 228 328 87 175 176 238 285 314 292 287 293 264 246 211 208 249 207 149 135 136 75 100 78 54 63 36 33 95 113 356 71 132 285 348 36 22 26 164 206 189 130 101 121 128 104 111 134 169 205 272 288 318 342 326 315 335 348 19 40 273 132 71 313 239 151 153 222 264 293 341 9 9 17 7 342 338 331 310 302 303 306 305 301 307
47 134 348 326 305 348 260 209 142 211 278 309 289 293 282 278 296 238 192 175 149 128 88 52 70 81 54 51 65 24 6 40 86 87 89 151 289 314 340 359 26 105 118 106 93 81 101 117 127 140 157 179 191 216 228 195 42 328 331 342 345 353 22 91 85 106 192 183 239 221 208 283 306 312 341 340 348 341 323 327 327 316 311 308 306 304 304 312
43 125 36 353 327 331 302 307 91 201 246 212 270 296 260 269 317 326 223 143 121 101 75 46 35 85 101 92 87 48 360 14 37 62 71 263 273 302 318 7 47 1 33 95 98 89 93 92 161 150 174 201 194 215 242 126 123 175 320 344 343 348 29 78 89 177 157 103 299 262 189 185 276 271 301 313 319 319 309 315 319 314 311 307 302 303 309 317
34 106 94 41 235 239 285 307 326 279 266 213 207 270 272 275 302 300 298 26 30 41 83 52 9 36 148 141 112 98 16 22 23 20 261 259 330 360 353 2 357 341 14 49 32 97 106 121 195 165 263 277 227 234 217 119 108 115 110 349 346 7 50 84 128 187 145 143 246 248 168 199 250 256 276 286 284 285 290 298 301 299 299 300 304 311 318 324
33 26 327 355 254 226 245 285 311 305 283 232 212 257 249 261 269 248 230 45 13 11 80 117 316 332 137 131 113 130 178 133 105 258 220 134 54 64 64 316 313 7 62 53 3 77 114 165 209 152 359 351 356 308 154 120 104 67 343 280 264 182 131 123 153 194 178 184 218 210 199 233 246 234 255 279 277 270 278 289 297 304 309 310 314 319 321 322
33 317 323 359 318 270 263 294 330 346 312 323 252 266 244 235 263 262 320 97 130 4 70 130 188 202 127 115 102 131 190 172 158 202 179 134 89 196 172 199 203 20 38 68 357 30 95 166 209 100 50 333 355 36 73 85 111 121 325 301 283 139 142 135 142 171 164 198 236 220 261 269 261 232 258 284 295 308 313 312 313 317 319 318 315 315 318 317
347 274 309 17 309 309 311 304 349 78 358 355 316 288 294 269 262 248 11 103 150 157 142 149 156 114 66 74 95 130 190 173 155 174 172 157 170 190 206 206 173 124 10 148 162 37 92 114 33 72 70 294 326 56 76 61 74 68 318 294 289 64 124 229 250 174 179 199 297 342 330 271 264 292 306 297 313 334 325 317 320 320 317 314 303 302 308 308
355 320 358 70 282 329 357 320 345 64 7 310 293 298 293 279 278 161 106 17 47 84 133 150 145 103 66 81 132 179 194 181 175 185 177 165 173 182 189 179 164 157 155 161 149 56 123 125 128 105 110 274 300 52 106 63 43 332 274 234 210 218 234 269 295 255 212 162 149 252 244 231 251 318 326 315 323 328 315 305 305 305 306 301 287 288 298 299